[[{"header":{"parameterUnit":"m.s-1","parameterCategory":1,"la1":30.2991,"la2":30.254,"lo1":-89.0895,"lo2":-89.0444,"dy":0.0017,"dx":0.0017,"nx":28,"ny":28,"refTime":"2023-10-28T03:00:00:Z","depth":0,"parameterNumber":2,"parameterNumberName":"U-component_of_WINDS"},"data":[0,0,0,0,0,0,0,0,0,0,0,0,0,0,0,0,0,0,0,0,0,0,0,0,0,0,0,0,0,0,0,0,0,0,0,0,0,0,0,0,0,0,0,0,0,0,0,0,0,0,0,0,0,0,0,0,0,0,-3.4131,-3.4131,0,-3.4118,-3.4117,-3.4117,-3.4048,-3.4046,-3.4045,-3.4043,-3.4029,-3.4031,-3.4032,0,0,0,0,0,0,0,0,0,0,0,0,0,-3.41,-3.4101,-3.4131,-3.4131,-3.4131,-3.4118,-3.4117,-3.4117,-3.4048,-3.4046,-3.4044,-3.4043,-3.4029,-3.403,-3.4032,0,0,0,0,0,0,0,0,0,0,0,0,0,-3.4103,-3.4102,-3.4131,-3.4095,-3.4092,-3.4118,-3.4117,-3.4117,-3.4049,-3.4046,-3.4044,-3.4042,-3.4029,-3.403,-3.4032,-3.4092,0,0,-3.4037,-3.4038,0,0,0,0,0,0,0,0,-3.4103,-3.4104,-3.41,-3.4098,-3.4094,-3.4082,-3.4101,-3.4109,-3.4049,-3.4065,-3.4043,-3.404,-3.4049,-3.4049,-3.4052,-3.4091,-3.4091,-3.4038,-3.4039,-3.4039,-3.404,0,0,0,0,0,0,0,-3.4103,-3.4105,-3.4126,-3.4101,-3.4096,-3.408,-3.4078,-3.4103,-3.4071,-3.4063,-3.4058,-3.4058,-3.4047,-3.405,-3.4051,-3.4091,-3.4037,-3.4039,-3.404,-3.4041,-3.4182,-3.4184,0,0,0,0,0,0,-3.4108,-3.4105,-3.4126,-3.4125,-3.4092,-3.4083,-3.408,-3.4088,-3.4071,-3.4065,-3.406,-3.4055,-3.4048,-3.4049,-3.405,-3.412,-3.4039,-3.4041,-3.4042,-3.4179,-3.4182,-3.4185,0,0,0,0,0,0,-3.4107,-3.411,-3.4127,-3.4114,-3.4115,-3.4086,-3.4096,-3.4089,-3.4093,-3.4068,-3.4062,-3.4069,-3.4047,-3.4048,-3.4083,-3.4119,-3.4042,-3.4043,-3.4176,-3.418,-3.4184,-3.4261,0,0,0,0,0,0,-3.4107,-3.411,-3.4132,-3.4115,-3.4116,-3.4159,-3.4098,-3.4091,-3.4096,-3.4089,-3.4075,-3.407,-3.4045,-3.4081,-3.4085,-3.412,-3.4045,-3.4173,-3.4178,-3.4183,-3.4255,-3.4267,-3.4277,0,0,0,0,0,-3.4106,-3.4154,-3.4133,-3.4136,-3.4142,-3.4161,-3.4162,-3.4131,-3.4099,-3.4121,-3.4106,-3.4071,-3.4115,-3.4085,-3.4089,-3.4125,-3.417,-3.4176,-3.4182,-3.425,-3.4265,-3.4277,0,0,0,0,0,0,-3.4175,-3.4151,-3.4128,-3.4171,-3.4169,-3.4149,-3.4176,-3.4147,-3.4154,-3.4147,-3.4109,-3.4107,-3.4148,-3.414,-3.4107,-3.4184,-3.4137,-3.4144,-3.4187,-3.4201,-3.4212,-3.4212,-3.4046,0,0,0,0,0,-3.4196,-3.4213,-3.4191,-3.4231,-3.4232,-3.4205,-3.4212,-3.4189,-3.4185,-3.4183,-3.417,-3.4168,-3.4181,-3.4191,-3.4202,-3.4254,-3.4251,-3.4282,-3.4293,-3.4302,-3.4309,-3.4338,-3.4352,-3.4205,-3.4205,-3.4205,0,0,-3.4237,-3.4226,-3.4239,-3.4245,-3.424,-3.426,-3.4204,-3.4226,-3.4241,-3.4186,-3.4219,-3.421,-3.4205,-3.425,-3.4269,-3.4245,-3.4349,-3.431,-3.4318,-3.4319,-3.4346,-3.436,-3.4372,-3.421,-3.4209,-3.4208,0,0,-3.4324,-3.4317,-3.4351,-3.4348,-3.4343,-3.4325,-3.4334,-3.4319,-3.4311,-3.4344,-3.4304,-3.4322,-3.4345,-3.4344,-3.4346,-3.4438,-3.4406,-3.4442,-3.45,-3.453,-3.4541,-3.4551,-3.4584,-3.4596,-3.4449,-3.4449,-3.4449,0,-3.4377,-3.4404,-3.4372,-3.4398,-3.4402,-3.4356,-3.4391,-3.439,-3.4389,-3.4393,-3.4366,-3.4397,-3.439,-3.4435,-3.4458,-3.4461,-3.4471,-3.4443,-3.4542,-3.4552,-3.4561,-3.4592,-3.4604,-3.4454,-3.4453,-3.4453,-3.4452,0,-3.447,-3.449,-3.4518,-3.4519,-3.4527,-3.4557,-3.4531,-3.4543,-3.4521,-3.4507,-3.4542,-3.4533,-3.4543,-3.4552,-3.453,-3.4595,-3.458,-3.4549,-3.45,-3.458,-3.4608,-3.462,-3.446,-3.4458,-3.4457,-3.4456,0,0,-3.4596,-3.4581,-3.4592,-3.4593,-3.4585,-3.46,-3.463,-3.464,-3.4652,-3.4654,-3.4678,-3.4701,-3.4673,-3.4676,-3.4654,-3.468,-3.4754,-3.4645,-3.4644,-3.4666,-3.4826,-3.485,-3.4864,-3.4734,-3.4736,-3.4738,-3.4827,0,-3.4679,-3.4728,-3.4702,-3.4754,-3.4774,-3.4732,-3.4758,-3.4757,-3.4746,-3.4761,-3.4749,-3.4766,-3.4727,-3.4729,-3.4753,-3.474,-3.4786,-3.4733,-3.4757,-3.4758,-3.4758,-3.4879,-3.4903,-3.4987,-3.4838,-3.484,-3.4841,0,-3.4781,-3.4788,-3.4843,-3.4835,-3.4842,-3.4866,-3.4874,-3.4889,-3.4888,-3.4878,-3.4884,-3.4857,-3.4887,-3.4841,-3.4883,-3.4848,-3.4857,-3.4853,-3.4855,-3.4855,-3.4803,-3.4882,-3.5013,-3.5026,-3.4858,-3.4857,-3.4856,0,-3.4868,-3.4892,-3.4928,-3.493,-3.4921,-3.4939,-3.4936,-3.4933,-3.4942,-3.495,-3.4955,-3.4967,-3.4973,-3.4983,-3.4961,-3.4929,-3.5006,-3.4958,-3.4999,-3.5,-3.5016,-3.5015,-3.515,-3.5023,-3.5023,-3.5022,-3.5022,0,-3.4963,-3.4998,-3.4967,-3.499,-3.5029,-3.5001,-3.504,-3.5033,-3.5032,-3.5053,-3.5018,-3.5039,-3.5008,-3.5027,-3.501,-3.5048,-3.5051,-3.5044,-3.5039,-3.5047,-3.5048,-3.5051,-3.5044,-3.5026,-3.5025,-3.5024,-3.5024,0,-3.5065,-3.5046,-3.5083,-3.5073,-3.5071,-3.5101,-3.5092,-3.5113,-3.5101,-3.5128,-3.5133,-3.5114,-3.5134,-3.5114,-3.5132,-3.5121,-3.5172,-3.5159,-3.5172,-3.5168,-3.5211,-3.5207,-3.5352,-3.537,-3.5232,-3.5234,-3.5235,0,-3.5126,-3.5153,-3.5146,-3.5158,-3.5157,-3.5177,-3.5186,-3.5161,-3.5172,-3.5175,-3.5196,-3.5214,-3.5226,-3.5261,-3.5249,-3.5264,-3.525,-3.53,-3.5252,-3.526,-3.5251,-3.5249,-3.5252,-3.5309,-3.5311,-3.5312,-3.5313,0,-3.5237,-3.5227,-3.5241,-3.5254,-3.5267,-3.5275,-3.5281,-3.5293,-3.5266,-3.5281,-3.5302,-3.5312,-3.5332,-3.535,-3.5362,-3.536,-3.5333,-3.5329,-3.5339,-3.5347,-3.5354,-3.5351,-3.5198,-3.5325,-3.5324,-3.5323,-3.5322,-3.5322,-3.532,-3.5343,-3.5342,-3.5361,-3.5363,-3.537,-3.539,-3.5381,-3.5398,-3.5413,-3.5397,-3.5423,-3.5424,-3.5438,-3.544,-3.546,-3.5439,-3.5454,-3.5458,-3.5462,-3.5468,-3.5352,-3.5462,-3.5462,-3.5461,-3.5461,-3.5461,0,-3.5429,-3.5428,-3.5445,-3.5455,-3.5471,-3.5445,-3.5451,-3.5465,-3.5489,-3.5492,-3.5506,-3.5532,-3.555,-3.5541,-3.5558,-3.5576,-3.5564,-3.5581,-3.5579,-3.558,-3.5486,-3.5475,-3.5591,-3.5591,-3.5591,-3.5591,-3.5591,-3.5591,-3.5488,-3.5525,-3.5516,-3.5555,-3.5553,-3.5578,-3.5584,-3.5592,-3.5595,-3.5625,-3.564,-3.5635,-3.5634,-3.5651,-3.5668,-3.5665,-3.5672,-3.5694,-3.5687,-3.5599,-3.5586,-3.5574,-3.5563,-3.5696,-3.5696,-3.5779,-3.578,-3.578]},{"header":{"parameterUnit":"m.s-1","parameterCategory":1,"la1":30.2991,"la2":30.254,"lo1":-89.0895,"lo2":-89.0444,"dy":0.0017,"dx":0.0017,"nx":28,"ny":28,"refTime":"2023-10-28T03:00:00:Z","depth":0,"parameterNumber":3,"parameterNumberName":"V-component_of_WINDS"},"data":[0,0,0,0,0,0,0,0,0,0,0,0,0,0,0,0,0,0,0,0,0,0,0,0,0,0,0,0,0,0,0,0,0,0,0,0,0,0,0,0,0,0,0,0,0,0,0,0,0,0,0,0,0,0,0,0,0,0,2.0408,2.0408,0,2.0461,2.0461,2.0462,2.0552,2.0554,2.0556,2.0557,2.0607,2.0607,2.0606,0,0,0,0,0,0,0,0,0,0,0,0,0,2.0383,2.0383,2.0408,2.0408,2.0409,2.0461,2.0461,2.0462,2.0552,2.0554,2.0556,2.0558,2.0607,2.0607,2.0606,0,0,0,0,0,0,0,0,0,0,0,0,0,2.041,2.0383,2.0408,2.046,2.0466,2.046,2.0461,2.0462,2.0552,2.0554,2.0557,2.0559,2.0607,2.0607,2.0606,2.0552,0,0,2.0605,2.0605,0,0,0,0,0,0,0,0,2.0408,2.0411,2.0452,2.0457,2.0463,2.0503,2.0471,2.0492,2.0551,2.0519,2.0557,2.056,2.057,2.0573,2.0577,2.0555,2.0557,2.0605,2.0605,2.0605,2.0604,0,0,0,0,0,0,0,2.0406,2.0409,2.0429,2.0452,2.0459,2.0481,2.0487,2.0475,2.0529,2.0522,2.0529,2.0534,2.0573,2.0577,2.0579,2.0558,2.0605,2.0605,2.0604,2.0604,2.0496,2.0493,0,0,0,0,0,0,2.0397,2.0407,2.0427,2.043,2.0441,2.0479,2.0487,2.0487,2.053,2.0539,2.0532,2.0538,2.0576,2.0579,2.0581,2.0522,2.0605,2.0604,2.0604,2.0498,2.0495,2.0492,0,0,0,0,0,0,2.0396,2.0398,2.0425,2.042,2.0426,2.0477,2.0477,2.0487,2.0491,2.0537,2.0547,2.0526,2.0578,2.0581,2.056,2.0525,2.0604,2.0604,2.0502,2.0498,2.0494,2.0402,0,0,0,0,0,0,2.0395,2.0397,2.0378,2.0419,2.0425,2.0403,2.0474,2.0486,2.049,2.0499,2.0534,2.0542,2.0581,2.056,2.0559,2.0525,2.0603,2.0505,2.05,2.0495,2.0408,2.0395,2.0384,0,0,0,0,0,2.0394,2.0348,2.0376,2.0378,2.0402,2.0401,2.0404,2.0451,2.0487,2.0468,2.0498,2.0541,2.0529,2.0557,2.0557,2.0522,2.0507,2.0501,2.0496,2.0414,2.0398,2.0385,0,0,0,0,0,0,2.0299,2.0355,2.0386,2.0353,2.0372,2.0416,2.0393,2.0432,2.044,2.0448,2.0504,2.0511,2.0482,2.05,2.053,2.0474,2.0525,2.0519,2.0463,2.0448,2.0436,2.0432,2.0603,0,0,0,0,0,2.0275,2.027,2.0319,2.0284,2.0293,2.0341,2.0342,2.0377,2.0398,2.0406,2.0434,2.0452,2.0453,2.0451,2.0454,2.0412,2.0421,2.0388,2.0376,2.0366,2.036,2.034,2.0327,2.0473,2.0473,2.0473,0,0,2.0223,2.0253,2.0247,2.0266,2.0285,2.0278,2.0347,2.0337,2.0332,2.0404,2.0386,2.0407,2.0431,2.0399,2.0386,2.0413,2.0322,2.0359,2.035,2.035,2.0333,2.0319,2.0306,2.0469,2.047,2.047,0,0,2.0127,2.0149,2.0124,2.0142,2.017,2.0203,2.0197,2.0236,2.0254,2.0237,2.0291,2.0286,2.0285,2.03,2.0308,2.022,2.026,2.0219,2.0155,2.0136,2.0124,2.0114,2.0083,2.0071,2.0213,2.0212,2.0212,0,2.0059,2.0053,2.0105,2.0093,2.01,2.0167,2.0142,2.0156,2.0183,2.0186,2.0216,2.0218,2.0238,2.0212,2.019,2.0194,2.0189,2.0215,2.0122,2.0112,2.0104,2.0075,2.0063,2.0207,2.0208,2.0208,2.0209,0,1.9969,1.9963,1.9939,1.9966,1.9971,1.9951,2.0001,1.9999,2.0033,2.0063,2.0045,2.0073,2.0083,2.0079,2.0112,2.0058,2.0074,2.0112,2.0164,2.0084,2.0058,2.0047,2.02,2.0202,2.0203,2.0204,0,0,1.9812,1.987,1.9861,1.9874,1.9911,1.9908,1.9892,1.9904,1.9901,1.9918,1.9906,1.9905,1.9941,1.995,1.9985,1.9967,1.9897,2.0008,2.001,1.9987,1.9839,1.981,1.9796,1.9924,1.9922,1.9921,1.9837,0,1.9724,1.9701,1.9749,1.9715,1.9711,1.9775,1.9761,1.9782,1.981,1.981,1.984,1.9838,1.9886,1.9892,1.9878,1.9908,1.9868,1.9915,1.9913,1.9912,1.9905,1.9783,1.9752,1.9672,1.9827,1.9826,1.9825,0,1.9617,1.9631,1.9596,1.9637,1.9637,1.9624,1.964,1.9639,1.9664,1.9686,1.9696,1.9738,1.9725,1.9777,1.976,1.9791,1.9793,1.9808,1.9806,1.9807,1.9863,1.9781,1.9647,1.9635,1.9809,1.981,1.9811,0,1.9507,1.9517,1.9498,1.9508,1.9555,1.9544,1.9563,1.9591,1.9595,1.9609,1.9612,1.9623,1.9629,1.9636,1.968,1.9713,1.9658,1.9712,1.9675,1.9673,1.966,1.966,1.9524,1.9661,1.9661,1.9661,1.9661,0,1.9404,1.938,1.945,1.9438,1.9414,1.9469,1.9443,1.9468,1.9493,1.9487,1.9543,1.9536,1.9594,1.9593,1.9628,1.9609,1.9611,1.9627,1.9637,1.9622,1.962,1.9624,1.9631,1.9658,1.9659,1.9659,1.966,0,1.9277,1.9323,1.9306,1.9353,1.9364,1.9344,1.9384,1.9375,1.9407,1.9398,1.94,1.9449,1.9451,1.9496,1.9507,1.9531,1.9498,1.9517,1.9489,1.9496,1.9456,1.9459,1.9318,1.9303,1.9448,1.9447,1.9445,0,1.9207,1.9191,1.9237,1.9238,1.9255,1.9255,1.9261,1.9314,1.9318,1.9347,1.9334,1.9341,1.935,1.935,1.9386,1.9395,1.9416,1.9366,1.9417,1.9404,1.9416,1.9416,1.9415,1.9355,1.9353,1.9351,1.935,0,1.908,1.9104,1.9111,1.9126,1.9132,1.9145,1.9163,1.916,1.9219,1.922,1.9224,1.9231,1.9244,1.925,1.9266,1.9285,1.9327,1.9334,1.9326,1.9311,1.9296,1.9304,1.946,1.9337,1.9338,1.9339,1.934,1.934,1.898,1.8969,1.9,1.9006,1.9026,1.9041,1.9035,1.9068,1.9072,1.9088,1.9119,1.9119,1.9145,1.9172,1.9187,1.9187,1.9212,1.92,1.9197,1.9193,1.9186,1.9296,1.919,1.919,1.9191,1.9191,1.9191,0,1.8856,1.888,1.8885,1.8909,1.8913,1.8955,1.8976,1.8977,1.8977,1.8999,1.9007,1.9012,1.9019,1.9056,1.9067,1.906,1.908,1.9061,1.9062,1.9066,1.9162,1.9168,1.9045,1.9045,1.9045,1.9045,1.9045,1.9045,1.8792,1.8777,1.8804,1.8799,1.8823,1.8824,1.8833,1.8847,1.8865,1.8869,1.8876,1.8901,1.8929,1.8943,1.8951,1.8963,1.8964,1.8939,1.8956,1.9045,1.9059,1.9072,1.9079,1.8939,1.8938,1.886,1.8859,1.8859]}]]